Weather in Kostino

Russia / Vladimir Oblast     55°59′15″N   39°21′29″E
В апреле 2022 года жителям России запретили посещать сайт meteo.paraplan.net по решению Генеральной прокуратуры. Аудитория сайта уменьшилась в 10 раз. Владельцы сайта не видят смысла в поддержке погодного сервера в таких условиях. Сайт будет закрыт в октябре.
temp.,
°C
wind,
m/s
gust,
m/s
humid.,
%
clouds,
%
prec.,
mm/h
press.,
hPa
HPBL,
m
29 september, thu
thu2900:00+8wsw2595100 0.1 1004264
03:00+7sw2594100 0.1 1005258
06:00+7sw2494100 0.0 1006201
09:00+9sw138379 0.0 1007334
12:00+12ssw247351 0.0 1009621
15:00+12s357762 0.0 1010588
18:00+11s128791 0.0 101125
21:00+9sw11929 0.1 101310
30 september, fri
fri3000:00+8s229380 0.0 101520
03:00+8s2395100 0.0 101565
06:00+7sse2696100 0.0 1016124
09:00+11sse3781100 0.0 1016256
12:00+15s4864100 0.0 1016675
15:00+15s3876100 0.0 1016650
18:00+13sse2693100 0.6 1016181
21:00+13s2798100 2.1 1016298
1 october, sat
sat100:00+13sw3699100 0.4 1016424
03:00+12w2499100 0.4 1017185
06:00+12nne1198100 0.1 101717
09:00+12e1195100 0.1 1017115
12:00+13e1196100 1.4 1016125
15:00+12nnw1299100 5.1 101478
18:00+12ene2498100 0.3 1014192
21:00+12ese2699100 0.3 1012243
2 october, sun
sun200:00+12se2799100 1.9 1010335
03:00+13ssw3798100 2.8 1008359
06:00+12sw2699100 0.0 1008350
09:00+13wsw369185 0.1 1008489
12:00+12sw3688100 0.2 1009552
15:00+12w2589100 0.4 1010481
18:00+10nnw2495100 0.2 1011302
21:00+9nne3694100 0.2 1012361
3 october, mon
mon300:00+9ne3694100 0.0 1012320
03:00+8ene379698 0.0 1011318
06:00+11ene41096100 0.0 1008350
09:00+12ene41295100 0.1 1007501
12:00+14e51391100 0.5 1005617
15:00+16ese51288100 2.0 1004842
18:00+15ese5137997 0.4 1003861
21:00+15se71672100 0.4 10021302